OBJECT G, 63297

Orbit data source: Space-Track

You're viewing an Uncataloged Satellite

Recently launched and/or uncataloged satellites may have evolving metadata. Metadata may include but not limited to: Owner, Maufacturer, Bus, Motor, and Mission.

OBJECT G, 63297 is a Chinese satellite in SSO that was launched on Mon, 17 Mar 2025 UTC via a GUSHENXING 1 launch vehicle from the Jiuquan Satellite Launch Center, China (JSC). Unknown objects in Earth's orbit typically refer to objects detected orbiting the Earth but have not yet been identified or cataloged. These objects could be anything from previously untracked satellites, spent rocket stages, debris from satellite collisions, or even natural meteoroids temporarily captured by Earth's gravity.

Loading next visibility...
Identifier
63297, 2025-055G
Orbit
SSO
Country
Flag of CNCN / PRC
Related business
None
Manufacturer
ZHWK/HITSAT
Mission
Operational Commercial Imaging
Bus & Motor
ZK1, Unknown motor
Mass
~250 kg wet, ~250 kg dry
Launch date (UTC)
2025-03-17 (6 months ago)
Launch vehicle
GUSHENXING 1
Launch site
Jiuquan Satellite Launch Center, China (JSC)
Object type
Unknown
Shape & HBR
Box + 3 Pan, 3.0 m
Radar Cross Section
3.533 m², Medium (>0.1 m² and < 1m²)

Expand to show TLE details & history
Last TLE update: 6 hours ago

TLE from 6 hours ago
0 OBJECT G
1 63297U 25055G   25260.97388988  .00011538  00000-0  62666-3 0  9996
2 63297  97.6215  35.8164 0010646  24.9562 335.2182 15.14635238 27877
Epoch: 2025-09-17T23:22Z
TLE epoch observation values (Epoch: 2025-09-17T23:22:24.085Z)
Latitude
-0.00006°
Longitude
48.0739°
Altitude
518.493 km
Speed
7.608 km/s
True Right ascension
02h 23m 15s
True Declination
0° 00' 00"
Sunlit
Object was in full shadow at epoch
Visualization orbit readout
Latitude
Unknown
Longitude
Unknown
Altitude
Unknown
Speed
Unknown
Apparent Right ascension
Unknown
Apparent Declination
Unknown
Sunlit
N/A
Visualization observer readout
Local Sidereal Time
22:18:19
Azimuth
Unknown
Elevation
Unknown
Doppler factor
Unknown
Orbital elements
Apogee altitude
526.411 km
Perigee altitude
511.726 km
Semi-major axis
6,897.205 km
Eccentricity
0.00106
Inclination
97.6215°
RAAN
35.8164°
Arg. of periapsis
24.9562°
True anomaly
335.167°
Mean anomaly
335.2182°
Eccentric anomaly
335.19261°
Mean motion
3.78908 °/min
Orbital period
95.01 mins
BSTAR
0.00062666
Loading maneuver chart data...
Computing Atmospheric mass density...
Loading historical data...
Loading historical data...
Loading historical data...
Loading historical data...
Loading historical data...
Loading historical data...
Loading historical data...

Documentation

Showing up to 5 results
|